Orbital Elements at Epoch 2459200.5 (2020-Dec-17.0) TDB
Reference: JPL 15 (heliocentric ecliptic J2000)
Element | Value | Uncertainty (1-sigma) | Units |
e | .1265665742879081 | 4.8347e-08 | |
a | 3.069451420511429 | 3.5177e-08 | au |
q | 2.680961469274144 | 1.5295e-07 | au |
i | 12.4540203048216 | 5.5012e-06 | deg |
node | 114.0700145283492 | 2.2663e-05 | deg |
peri | 237.5712515950685 | 3.1311e-05 | deg |
M | 327.3646218288734 | 2.2696e-05 | deg |
tp | 2459378.563834782884 (2021-Jun-13.06383478) | 0.00012541 | TDB |
period | 1964.217487712514 5.38 | 3.3766e-05 9.245e-08 | d yr |
n | .1832790932022749 | 3.1507e-09 | deg/d |
Q | 3.457941371748714 | 3.9629e-08 | au |
|
| | Orbit Determination Parameters
Additional Information
|